CW8192 Weather Reports


Display with metric or nautical units.
time (UTC)temp
F
wind
direction
speed
MPH
gust
MPH
rain 1hr
in
rain 24hr
in
rain mn
in
humidity
%
barometer
mb
20260904170205 78 287 7.0 10.0 0.00 0.00 0.00 74 1010.6
20260904165705 77 282 3.0 5.0 0.00 0.00 0.00 70 1010.8
20260904165204 78 331 2.0 3.0 0.00 0.00 0.00 69 1010.8
20260904164705 78 302 2.0 9.0 0.00 0.00 0.00 65 1010.8
20260904164204 79 289 2.0 8.0 0.00 0.00 0.00 64 1010.8
20260904162704 79 323 2.0 8.0 0.00 0.00 0.00 69 1010.9
20260904162204 79 287 3.0 7.0 0.00 0.00 0.00 68 1011.0
20260904161705 78 302 4.0 7.0 0.00 0.00 0.00 69 1011.0
20260904161205 79 287 2.0 5.0 0.00 0.00 0.00 70 1011.1
20260904160704 79 288 3.0 7.0 0.00 0.00 0.00 70 1011.1
20260904154205 78 8 0.0 3.0 0.00 0.00 0.00 71 1011.2
20260904153704 78 355 1.0 3.0 0.00 0.00 0.00 71 1011.3
20260904153205 79 297 1.0 6.0 0.00 0.00 0.00 70 1011.6
20260904152705 78 290 2.0 3.0 0.00 0.00 0.00 69 1011.7
20260904152204 78 283 3.0 5.0 0.00 0.00 0.00 72 1011.8
20260904151204 78 293 2.0 3.0 0.00 0.00 0.00 74 1011.7
20260904150706 77 289 4.0 6.0 0.00 0.00 0.00 74 1011.7
20260904150204 76 282 1.0 3.0 0.00 0.00 0.00 75 1011.9
20260904145705 75 302 2.0 3.0 0.00 0.00 0.00 76 1011.8
20260904145205 75 297 1.0 2.0 0.00 0.00 0.00 75 1011.9
20260904144705 76 290 2.0 7.0 0.00 0.00 0.00 76 1011.9
20260904143705 76 298 2.0 5.0 0.00 0.00 0.00 77 1011.8
20260904143204 76 273 1.0 3.0 0.00 0.00 0.00 77 1011.8
20260904142704 75 292 2.0 3.0 0.00 0.00 0.00 78 1011.6
20260904142205 75 287 3.0 3.0 0.00 0.00 0.00 77 1011.7
20260904140705 75 289 0.0 0.0 0.00 0.00 0.00 79 1011.7
20260904135205 74 289 0.0 0.0 0.00 0.00 0.00 77 1011.6
20260904134704 74 331 0.0 0.0 0.00 0.00 0.00 78 1011.6
20260904133704 73 277 0.0 0.0 0.00 0.00 0.00 82 1011.5
20260904133204 73 281 0.0 0.0 0.00 0.00 0.00 81 1011.5
20260904132705 72 285 0.0 0.0 0.00 0.00 0.00 82 1011.7
20260904131705 72 282 0.0 0.0 0.00 0.00 0.00 84 1011.6
20260904131204 71 298 2.0 3.0 0.00 0.00 0.00 85 1011.6
20260904130704 70 285 0.0 0.0 0.00 0.00 0.00 86 1011.7
20260904130204 70 311 2.0 3.0 0.00 0.00 0.00 87 1011.7
20260904125705 70 274 2.0 5.0 0.00 0.00 0.00 88 1011.7
20260904125205 69 290 1.0 3.0 0.00 0.00 0.00 88 1011.8
20260904124704 69 272 2.0 3.0 0.00 0.00 0.00 88 1011.8
20260904124204 68 298 2.0 5.0 0.00 0.00 0.00 90 1011.8
20260904123704 68 295 1.0 3.0 0.00 0.00 0.00 91 1011.8
20260904122705 67 301 1.0 3.0 0.00 0.00 0.00 93 1011.8
20260904121705 65 276 0.0 5.0 0.00 0.00 0.00 96 1011.7
20260904121205 65 301 1.0 6.0 0.00 0.00 0.00 96 1011.7
20260904120705 65 298 0.0 0.0 0.00 0.00 0.00 95 1011.8
20260904120204 65 295 0.0 0.0 0.00 0.00 0.00 96 1011.7
20260904115704 65 294 0.0 0.0 0.00 0.00 0.00 95 1011.6
20260904115204 64 315 0.0 0.0 0.00 0.00 0.00 97 1011.6
20260904114705 63 309 0.0 0.0 0.00 0.00 0.00 98 1011.5
20260904114205 63 305 0.0 0.0 0.00 0.00 0.00 99 1011.4
20260904113704 63 305 0.0 0.0 0.00 0.00 0.00 99 1011.5
20260904113205 62 307 0.0 0.0 0.00 0.00 0.00 99 1011.4
20260904112704 62 82 0.0 0.0 0.00 0.00 0.00 99 1011.4
20260904112205 61 82 0.0 0.0 0.00 0.00 0.00 99 1011.5
20260904111205 60 94 0.0 0.0 0.00 0.00 0.00 99 1011.2
20260904110705 60 84 0.0 0.0 0.00 0.00 0.00 99 1011.2
20260904110204 59 84 0.0 0.0 0.00 0.00 0.00 99 1011.2
20260904105704 59 84 0.0 0.0 0.00 0.00 0.00 99 1011.1
20260904105205 59 84 0.0 0.0 0.00 0.00 0.00 99 1011.2
20260904104205 59 84 0.0 0.0 0.00 0.00 0.00 98 1011.1
20260904103204 60 84 0.0 0.0 0.00 0.00 0.00 98 1010.8
20260904102704 60 84 0.0 0.0 0.00 0.00 0.00 98 1010.7
20260904102204 60 84 0.0 0.0 0.00 0.00 0.00 98 1010.8
20260904101705 60 84 0.0 0.0 0.00 0.00 0.00 99 1010.7
20260904101204 60 84 0.0 0.0 0.00 0.00 0.00 99 1010.7
20260904100704 60 84 0.0 0.0 0.00 0.00 0.00 98 1010.8
20260904100204 60 84 0.0 0.0 0.00 0.00 0.00 98 1010.8
20260904094704 60 113 0.0 0.0 0.00 0.00 0.00 98 1010.7
20260904094204 60 113 0.0 0.0 0.00 0.00 0.00 98 1010.7
20260904093704 60 113 0.0 0.0 0.00 0.00 0.00 98 1010.5
20260904093204 60 113 0.0 0.0 0.00 0.00 0.00 98 1010.5
20260904092704 60 112 0.0 0.0 0.00 0.00 0.00 98 1010.5
20260904092205 60 112 0.0 0.0 0.00 0.00 0.00 97 1010.4
20260904091704 61 137 0.0 0.0 0.00 0.00 0.00 98 1010.6
20260904091206 61 137 0.0 0.0 0.00 0.00 0.00 98 1010.5
20260904090705 61 173 0.0 0.0 0.00 0.00 0.00 98 1010.5
20260904085704 61 92 0.0 0.0 0.00 0.00 0.00 98 1010.4
20260904085204 61 92 0.0 0.0 0.00 0.00 0.00 98 1010.4
20260904084704 61 92 0.0 0.0 0.00 0.00 0.00 98 1010.2
20260904083704 61 92 0.0 0.0 0.00 0.00 0.00 98 1010.2
20260904083204 61 57 0.0 0.0 0.00 0.00 0.00 98 1010.2
20260904082704 61 105 0.0 0.0 0.00 0.00 0.00 98 1010.3
20260904082205 61 128 0.0 0.0 0.00 0.00 0.00 98 1010.1
20260904081204 62 78 0.0 0.0 0.00 0.00 0.00 98 1009.9
20260904080704 62 78 0.0 0.0 0.00 0.00 0.00 98 1010.1
20260904080204 62 197 0.0 0.0 0.00 0.00 0.00 98 1010.1
20260904075704 62 123 0.0 0.0 0.00 0.00 0.00 98 1010.0
20260904075204 62 94 0.0 0.0 0.00 0.00 0.00 98 1009.9
20260904074705 62 116 0.0 0.0 0.00 0.00 0.00 98 1010.0
20260904073704 61 120 0.0 0.0 0.00 0.00 0.00 98 1010.1
20260904073206 61 149 0.0 0.0 0.00 0.00 0.00 97 1010.2
20260904072704 62 59 0.0 0.0 0.00 0.00 0.00 98 1010.1
20260904071705 62 143 0.0 0.0 0.00 0.00 0.00 98 1010.2
20260904071204 62 136 0.0 0.0 0.00 0.00 0.00 98 1010.2
20260904070704 62 111 0.0 0.0 0.00 0.00 0.00 98 1010.3
20260904070206 62 105 0.0 0.0 0.00 0.00 0.00 98 1010.4
20260904065204 62 108 0.0 0.0 0.00 0.00 0.00 98 1010.5
20260904064705 62 118 0.0 0.0 0.00 0.00 0.00 98 1010.5
20260904064204 62 119 0.0 0.0 0.00 0.00 0.00 98 1010.6
20260904063704 62 104 0.0 0.0 0.00 0.01 0.00 97 1010.6
20260904063204 62 98 0.0 0.0 0.00 0.01 0.00 97 1010.7
20260904062704 62 223 0.0 0.0 0.00 0.01 0.00 98 1010.8
20260904061704 63 223 0.0 0.0 0.00 0.01 0.00 97 1010.7
20260904061204 63 223 0.0 0.0 0.00 0.01 0.00 97 1010.8
20260904060205 63 223 0.0 0.0 0.00 0.01 0.00 98 1010.8
20260904055704 63 223 0.0 0.0 0.00 0.01 0.00 98 1010.9
20260904055205 63 185 0.0 0.0 0.00 0.01 0.00 98 1010.9
20260904054705 63 132 0.0 0.0 0.00 0.01 0.00 98 1010.8
20260904054204 63 170 0.0 0.0 0.00 0.01 0.00 98 1010.8
20260904053705 63 129 0.0 0.0 0.00 0.01 0.00 98 1010.7
20260904053204 63 127 0.0 0.0 0.00 0.01 0.00 98 1010.6
20260904052704 63 121 0.0 0.0 0.00 0.01 0.00 98 1010.7
20260904052204 63 150 0.0 0.0 0.00 0.01 0.00 98 1010.8
20260904051205 62 109 0.0 0.0 0.00 0.01 0.00 98 1010.9
20260904050704 63 113 0.0 0.0 0.00 0.01 0.00 97 1011.0
20260904050205 63 131 0.0 0.0 0.00 0.02 0.00 97 1011.2
20260904045704 63 139 0.0 0.0 0.00 0.02 0.00 97 1011.2
20260904045204 63 110 0.0 0.0 0.00 0.02 0.00 98 1011.2
20260904044204 63 100 0.0 0.0 0.00 0.02 0.00 97 1011.5
20260904043704 63 111 0.0 0.0 0.00 0.02 0.00 97 1011.5
20260904042704 63 121 0.0 0.0 0.00 0.03 0.00 97 1011.5
20260904041704 63 121 0.0 0.0 0.00 0.03 0.00 97 1011.3
20260904040705 64 115 0.0 0.0 0.00 0.04 0.00 96 1011.4
20260904040204 64 124 0.0 0.0 0.00 0.05 0.00 96 1011.5
20260904035704 64 159 0.0 0.0 0.00 0.05 0.05 97 1011.5
20260904035204 64 148 0.0 0.0 0.00 0.05 0.05 97 1011.5
20260904034704 64 142 0.0 0.0 0.00 0.05 0.05 97 1011.5
20260904034204 64 105 0.0 0.0 0.00 0.05 0.05 97 1011.4
20260904033705 64 105 0.0 0.0 0.00 0.05 0.05 97 1011.4
20260904033205 64 101 0.0 0.0 0.00 0.05 0.05 96 1011.4
20260904032704 64 109 0.0 0.0 0.00 0.05 0.05 96 1011.5
20260904032204 65 113 0.0 0.0 0.00 0.05 0.05 96 1011.5
20260904031204 65 113 0.0 0.0 0.00 0.05 0.05 96 1011.4
20260904030704 65 98 0.0 0.0 0.00 0.05 0.05 96 1011.6
20260904030204 65 127 0.0 0.0 0.00 0.05 0.05 96 1011.7
20260904025704 65 124 0.0 0.0 0.00 0.05 0.05 96 1011.9
20260904025204 65 122 0.0 0.0 0.00 0.05 0.05 96 1011.9
20260904024704 66 93 0.0 0.0 0.00 0.05 0.05 96 1011.9
20260904024204 66 82 0.0 0.0 0.00 0.05 0.05 96 1011.9
20260904023705 66 95 0.0 0.0 0.00 0.05 0.05 96 1012.1
20260904023204 66 118 0.0 0.0 0.00 0.05 0.05 96 1012.2
20260904022704 66 118 0.0 0.0 0.00 0.05 0.05 96 1012.2
20260904022204 66 114 0.0 0.0 0.00 0.05 0.05 96 1011.9
20260904021704 66 85 0.0 0.0 0.00 0.05 0.05 96 1011.8
20260904021204 66 123 0.0 0.0 0.00 0.05 0.05 95 1011.9
20260904020704 66 90 0.0 0.0 0.00 0.05 0.05 95 1011.8
20260904020204 66 92 0.0 0.0 0.00 0.05 0.05 95 1011.8
20260904015704 66 120 0.0 0.0 0.00 0.05 0.05 95 1011.8
20260904015204 67 123 0.0 0.0 0.00 0.05 0.05 95 1012.0
20260904014704 67 93 0.0 0.0 0.00 0.05 0.05 95 1012.0
20260904014203 67 93 0.0 0.0 0.00 0.05 0.05 94 1011.9
20260904013704 67 76 0.0 0.0 0.00 0.05 0.05 94 1011.9
20260904013204 67 112 0.0 0.0 0.00 0.05 0.05 94 1011.9
20260904012704 67 99 0.0 0.0 0.00 0.05 0.05 94 1011.9
20260904012204 68 116 0.0 0.0 0.00 0.05 0.05 93 1012.0
20260904011704 68 133 0.0 0.0 0.00 0.05 0.05 93 1012.1
20260904010705 68 128 0.0 0.0 0.00 0.05 0.05 94 1012.1
20260904010204 67 120 0.0 0.0 0.00 0.05 0.05 95 1012.1
20260904005704 67 115 0.0 0.0 0.00 0.05 0.05 95 1012.0
20260904005204 67 130 0.0 0.0 0.00 0.05 0.05 94 1012.1
20260904004704 68 114 0.0 0.0 0.00 0.05 0.05 94 1012.2
20260904004204 68 100 0.0 0.0 0.00 0.05 0.05 94 1012.2
20260904003704 68 109 0.0 0.0 0.00 0.05 0.05 94 1012.1
20260904003204 68 112 0.0 0.0 0.00 0.05 0.05 94 1012.2
20260904002704 68 125 0.0 0.0 0.00 0.05 0.05 93 1012.2
20260904002204 68 99 0.0 0.0 0.00 0.05 0.05 92 1012.1
20260904001704 68 319 0.0 0.0 0.00 0.05 0.05 91 1012.0
20260904001203 69 301 0.0 0.0 0.00 0.05 0.05 91 1011.9
20260904000704 69 301 0.0 0.0 0.00 0.05 0.05 90 1011.9
20260904000204 69 301 0.0 0.0 0.00 0.05 0.05 89 1011.7
20260903235704 69 301 0.0 0.0 0.00 0.05 0.05 89 1011.8
20260903235204 70 301 0.0 0.0 0.00 0.05 0.05 87 1011.7
20260903234703 70 301 0.0 0.0 0.00 0.05 0.05 86 1011.6
20260903234204 70 301 0.0 0.0 0.00 0.05 0.05 85 1011.3
20260903233704 71 301 0.0 0.0 0.00 0.05 0.05 85 1011.2
20260903233204 71 301 0.0 0.0 0.00 0.05 0.05 84 1011.3
20260903232704 72 301 0.0 0.0 0.00 0.05 0.05 82 1011.3
20260903232204 72 301 0.0 0.0 0.00 0.05 0.05 81 1011.3
20260903231704 72 301 0.0 0.0 0.00 0.05 0.05 81 1011.3
20260903231204 73 301 0.0 0.0 0.00 0.05 0.05 80 1011.4
20260903230705 73 301 0.0 0.0 0.00 0.05 0.05 79 1011.5
20260903230204 73 301 0.0 0.0 0.00 0.05 0.05 79 1011.7
20260903225704 74 301 0.0 0.0 0.00 0.05 0.05 78 1011.5
20260903225204 74 301 1.0 1.0 0.00 0.05 0.05 77 1011.5
20260903224704 74 301 1.0 3.0 0.00 0.05 0.05 77 1011.5
20260903224203 75 301 1.0 2.0 0.00 0.05 0.05 76 1011.4
20260903223704 75 304 0.0 3.0 0.00 0.05 0.05 77 1011.6
20260903223204 76 299 1.0 2.0 0.00 0.05 0.05 77 1011.6
20260903222705 76 303 2.0 3.0 0.00 0.05 0.05 76 1011.6
20260903222204 77 298 1.0 2.0 0.00 0.05 0.05 77 1011.4
20260903221705 77 285 1.0 3.0 0.00 0.05 0.05 78 1011.4
20260903221205 78 293 2.0 5.0 0.00 0.05 0.05 77 1011.4
20260903220705 78 297 2.0 3.0 0.00 0.05 0.05 77 1011.4
20260903214705 80 323 0.0 1.0 0.00 0.05 0.05 73 1011.3
20260903214205 80 289 2.0 5.0 0.00 0.05 0.05 77 1011.4
20260903213705 81 288 4.0 7.0 0.00 0.05 0.05 77 1011.5
20260903213205 82 299 2.0 5.0 0.00 0.05 0.05 76 1011.6
20260903212705 82 307 0.0 2.0 0.00 0.05 0.05 78 1011.5
20260903212205 81 251 0.0 0.0 0.00 0.05 0.05 78 1011.5
20260903211705 81 308 0.0 0.0 0.00 0.05 0.05 80 1011.5
20260903211205 80 308 0.0 0.0 0.00 0.05 0.05 81 1011.6
20260903210705 79 308 0.0 0.0 0.00 0.05 0.05 82 1011.5
20260903210205 80 308 0.0 0.0 0.00 0.05 0.05 80 1011.6
20260903204705 81 118 0.0 2.0 0.00 0.05 0.05 79 1011.5
20260903204205 81 327 0.0 0.0 0.00 0.05 0.05 79 1011.4
20260903203705 81 329 1.0 3.0 0.00 0.05 0.05 77 1011.4
20260903202205 82 279 3.0 6.0 0.00 0.05 0.05 77 1011.3
20260903201705 81 310 2.0 3.0 0.00 0.05 0.05 78 1011.3
20260903201205 81 349 1.0 3.0 0.00 0.05 0.05 81 1011.2
20260903200705 80 106 0.0 2.0 0.00 0.05 0.05 84 1011.4
20260903200205 80 76 0.0 0.0 0.00 0.05 0.05 82 1011.4
20260903195705 80 111 0.0 1.0 0.00 0.05 0.05 82 1011.6
20260903195204 80 178 1.0 3.0 0.00 0.05 0.05 80 1011.5
20260903194705 80 118 1.0 3.0 0.00 0.05 0.05 80 1011.5
20260903194205 80 230 1.0 2.0 0.00 0.05 0.05 78 1011.6
20260903193706 80 257 2.0 3.0 0.00 0.05 0.05 78 1011.4
20260903193204 81 239 3.0 7.0 0.00 0.05 0.05 78 1011.6
20260903192705 81 269 1.0 3.0 0.00 0.05 0.05 79 1011.6
20260903191705 81 252 1.0 3.0 0.00 0.05 0.05 80 1011.7
20260903191204 79 276 1.0 2.0 0.00 0.05 0.05 81 1011.8
20260903190706 78 250 1.0 2.0 0.00 0.05 0.05 84 1011.8
20260903190205 78 286 1.0 2.0 0.00 0.05 0.05 84 1011.9
20260903185705 78 286 1.0 2.0 0.00 0.05 0.05 84 1012.0
20260903185205 77 286 0.0 1.0 0.00 0.05 0.05 83 1011.9
20260903184704 78 286 1.0 1.0 0.00 0.05 0.05 84 1012.0
20260903183204 79 22 0.0 1.0 0.00 0.05 0.05 83 1012.1
20260903182205 79 22 0.0 2.0 0.00 0.05 0.05 80 1012.1
20260903181706 79 60 1.0 2.0 0.00 0.05 0.05 79 1012.1
20260903181204 80 238 1.0 3.0 0.00 0.05 0.05 80 1012.1
20260903180705 79 232 0.0 1.0 0.00 0.05 0.05 79 1012.1
20260903175705 78 239 1.0 2.0 0.00 0.05 0.05 80 1012.2
20260903175205 78 273 1.0 2.0 0.00 0.05 0.05 81 1012.3
20260903174704 78 273 2.0 3.0 0.00 0.05 0.05 80 1012.3
20260903174205 78 273 1.0 1.0 0.00 0.05 0.05 82 1012.4
20260903173205 78 243 1.0 3.0 0.00 0.05 0.05 81 1012.4
20260903172705 78 279 0.0 0.0 0.00 0.05 0.05 81 1012.5
20260903172205 78 272 0.0 0.0 0.00 0.05 0.05 82 1012.6
20260903171705 77 235 0.0 0.0 0.00 0.05 0.05 83 1012.6
20260903171205 77 244 0.0 3.0 0.00 0.05 0.05 81 1012.6